• Join FlightAware (Why Join?)
  • Login
  • US Flag 
06:48AM EST


 

Airport Tracker/Info


-or-


 

Live Flight TrackerFlight Track Log ✈ N789EX ✈ 14-Nov-2013 ✈ KBFI - KMWH

Flight Track Log - Related Links

Times and Time Zones

All times are in EST time to prevent confusion due to time zone crossing. See the N789EX flight status page for this flight to view local times or setup timezone preferences in your user account.

Time Position Orientation Groundspeed Altitude Reporting Facility
EST Latitude Longitude Course Direction KTS MPH feet Rate Location/Type
12:16PM 47.4760 -122.2560 150° Southeast 221 254 1,700  Level FlightAware
12:16PM 47.4650 -122.2470 151° Southeast 238 274 1,800 2,060 Climbing FlightAware
12:19PM 47.4350 -122.0690 104° East 269 310 7,400 1,867 Climbing FlightAware
12:19PM 47.4520 -122.0390 50° Northeast 269 310 7,400 2,625 Level FlightAware
12:21PM 47.5530 -122.0520 355° North 276 318 11,600 2,026 Climbing FlightAware
12:22PM 47.6570 -122.1170 337° Northwest 335 386 12,500 1,221 Climbing FlightAware
12:22PM 47.7100 -122.1520 336° Northwest 348 400 13,900 3,310 Climbing FlightAware
12:23PM 47.7540 -122.1790 338° Northwest 364 419 15,700 2,839 Climbing FlightAware
12:24PM 47.8610 -122.2470 337° Northwest 367 422 18,300 2,336 Climbing FlightAware
12:25PM 47.9470 -122.3010 337° Northwest 375 432 20,100 1,976 Climbing FlightAware
12:25PM 48.0120 -122.3400 338° Northwest 389 448 21,100 1,519 Climbing FlightAware
12:26PM 48.0780 -122.3130 15° North 413 475 22,100 1,440 Climbing FlightAware
12:27PM 48.1080 -122.2220 64° Northeast 426 490 22,900 1,333 Climbing FlightAware
12:27PM 48.1160 -122.1390 82° East 436 502 23,500 1,322 Climbing FlightAware
12:28PM 48.1140 -122.0470 92° East 442 509 24,200 1,400 Climbing FlightAware
12:29PM 48.1100 -121.8710 92° East 450 518 25,600 1,513 Climbing FlightAware
12:30PM 48.1050 -121.6780 92° East 450 518 27,200 1,517 Climbing FlightAware
12:30PM 48.1010 -121.5970 94° East 451 519 27,800 1,220 Climbing FlightAware
12:31PM 48.0970 -121.5040 94° East 455 524 28,400 978 Climbing FlightAware
12:32PM 48.0880 -121.3050 94° East 466 536 29,300 800 Climbing FlightAware
12:32PM 48.0840 -121.2090 94° East 472 543 29,600 592 Climbing FlightAware
12:33PM 48.0770 -121.0780 95° East 482 555 30,000 360 Climbing FlightAware
12:34PM 48.0660 -120.8880 95° East 504 580 30,200 382 Climbing FlightAware
12:35PM 48.0560 -120.6980 94° East 514 592 30,700 361 Climbing FlightAware
12:35PM 48.0490 -120.5770 95° East 530 610 30,700 102 Level FlightAware
12:36PM 48.0440 -120.4870 95° East 535 616 30,800 -90 Climbing FlightAware
12:36PM 48.0340 -120.3330 95° East 545 627 30,600 -264 Descending FlightAware
12:37PM 48.0240 -120.1420 94° East 549 632 30,400 -200 Descending FlightAware
12:38PM 48.0190 -120.0070 93° East 547 629 30,300 -269 Descending FlightAware
12:38PM 48.0150 -119.8980 93° East 534 615 30,100 -164 Descending FlightAware
12:39PM 47.9950 -119.7240 100° East 537 618 30,100 243 Level FlightAware
12:40PM 47.9460 -119.6540 136° Southeast 535 616 30,400 658 Climbing FlightAware
12:40PM 47.8400 -119.6490 178° South 511 588 30,900 450 Climbing FlightAware
12:41PM 47.7840 -119.7330 225° Southwest 491 565 31,000 111 Climbing FlightAware
12:41PM 47.7750 -119.7950 258° West 485 558 31,000  Level FlightAware
12:42PM 47.7940 -119.9210 283° West 486 559 31,000  Level FlightAware
12:42PM 47.8160 -120.0510 284° West 489 563 31,000  Level FlightAware
12:43PM 47.8360 -120.1640 285° West 488 562 31,000 91 Level FlightAware
12:44PM 47.8540 -120.2660 285° West 490 564 31,100 680 Climbing FlightAware
12:45PM 47.8900 -120.4760 284° West 486 559 32,100 919 Climbing FlightAware
12:45PM 47.9160 -120.6230 285° West 483 556 32,800 783 Climbing FlightAware
12:46PM 47.9260 -120.6820 284° West 485 558 33,000 197 Climbing FlightAware
12:46PM 47.9500 -120.8200 285° West 494 568 33,000  Level FlightAware
12:47PM 47.9710 -120.9370 285° West 501 577 33,000  Level FlightAware
12:48PM 47.9950 -121.0710 285° West 504 580 33,000  Level FlightAware
12:49PM 48.0320 -121.2890 284° West 505 581 33,000  Level FlightAware
12:50PM 48.0860 -121.4820 293° West 485 558 33,000  Level FlightAware
12:50PM 48.1510 -121.5140 342° North 478 550 33,000  Level FlightAware
12:51PM 48.2100 -121.4860 18° North 484 557 33,000  Level FlightAware
12:51PM 48.2520 -121.4100 50° Northeast 495 570 33,000  Level FlightAware
12:52PM 48.2400 -121.2350 96° East 519 597 33,000 72 Level FlightAware
12:53PM 48.2120 -121.1100 109° East 525 604 33,100  Climbing FlightAware
12:53PM 48.1830 -120.9790 108° East 531 611 33,000 -490 Descending FlightAware
12:54PM 48.1380 -120.7700 108° East 542 624 32,300 -1,200 Descending FlightAware
12:55PM 48.1140 -120.6580 108° East 548 631 31,200 -1,545 Descending FlightAware
12:55PM 48.0890 -120.5300 106° East 544 626 30,600 -90 Descending FlightAware
12:56PM 48.0660 -120.4140 106° East 534 615 31,100 857 Climbing FlightAware
12:57PM 48.0450 -120.3070 106° East 532 612 31,500 646 Climbing FlightAware
12:57PM 48.0220 -120.1840 106° East 529 609 31,800 -776 Climbing FlightAware
12:58PM 48.0030 -120.0000 99° East 551 634 30,400 -424 Descending FlightAware
12:59PM 47.9900 -119.8730 99° East 533 613 31,200 1,543 Climbing FlightAware
12:59PM 47.9800 -119.7400 96° East 524 603 32,200 1,333 Climbing FlightAware
01:00PM 47.9740 -119.6090 94° East 520 598 32,800 583 Climbing FlightAware
01:00PM 47.9690 -119.4840 93° East 526 605 32,900 -1,674 Climbing FlightAware
01:01PM 47.9630 -119.2940 93° East 555 639 30,400 -1,648 Descending FlightAware
01:02PM 47.9600 -119.1630 92° East 555 639 30,400 217 Level FlightAware
01:03PM 47.9520 -118.9810 94° East 525 604 30,700 247 Climbing FlightAware
01:03PM 47.9480 -118.8900 94° East 524 603 30,700  Level FlightAware
01:04PM 47.9430 -118.7790 94° East 524 603 30,700  Level FlightAware
01:04PM 47.9390 -118.6990 94° East 524 603 30,700  Level FlightAware
01:05PM 47.9340 -118.5890 94° East 524 603 30,700  Level FlightAware
01:05PM 47.9290 -118.4780 94° East 524 603 30,700  Level FlightAware
01:06PM 47.9230 -118.3680 95° East 524 603 30,700  Level FlightAware
01:06PM 47.9180 -118.2580 94° East 524 603 30,700  Level FlightAware
01:07PM 47.9130 -118.1440 94° East 524 603 30,700  Level FlightAware
01:08PM 47.9030 -117.9260 94° East 524 603 30,700 938 Level FlightAware
01:09PM 47.8197 -117.5717 94° East 522 601 32,700 -559 Climbing Seattle Center
01:10PM 47.7925 -117.3419 100° East 561 646 29,600 -590 Descending Seattle Center
01:11PM 47.7700 -117.1147 98° East 554 638 31,500 1,574 Climbing Seattle Center
01:12PM 47.7481 -116.8903 98° East 543 625 32,800 -1,820 Climbing Seattle Center
01:13PM 47.7269 -116.6692 98° East 537 618 27,800 -1,918 Descending Seattle Center
01:14PM 47.7092 -116.4383 96° East 550 633 28,900 885 Climbing Seattle Center
01:15PM 47.8111 -116.2381 53° Northeast 546 628 29,600 1,033 Climbing Seattle Center
01:16PM 47.9272 -116.3100 337° Northwest 492 566 31,000 1,377 Climbing Seattle Center
01:17PM 47.9161 -116.4825 265° West 457 526 32,400 984 Climbing Seattle Center
01:18PM 47.8456 -116.6375 236° Southwest 454 522 33,000 295 Climbing Seattle Center
01:19PM 47.7992 -116.8164 249° West 462 532 33,000  Level Seattle Center
01:20PM 47.7986 -117.0125 270° West 486 559 33,000 -639 Level Seattle Center
01:21PM 47.8175 -117.2125 278° West 497 572 31,700 -99 Descending Seattle Center
01:22PM 47.8281 -117.4003 275° West 471 542 32,800 -689 Climbing Seattle Center
01:23PM 47.8350 -117.6389 273° West 485 558 30,300 -885 Descending Seattle Center
01:24PM 47.8431 -117.8397 273° West 491 565 31,000 1,033 Climbing Seattle Center
01:25PM 47.8550 -118.0369 275° West 484 557 32,400  Climbing Seattle Center
01:31PM 47.9300 -119.0580 275° West 466 536 31,000 -243 Descending FlightAware
01:31PM 47.9500 -119.1800 284° West 457 526 31,000  Level FlightAware
01:32PM 47.9650 -119.3120 280° West 461 531 31,000  Level FlightAware
01:33PM 47.9760 -119.4570 277° West 460 529 31,000  Level FlightAware
01:33PM 47.9860 -119.5940 276° West 462 532 31,000  Level FlightAware
01:34PM 47.9970 -119.7360 277° West 461 531 31,000  Level FlightAware
01:35PM 48.0060 -119.8600 276° West 463 533 31,000  Level FlightAware
01:35PM 48.0160 -119.9890 277° West 467 537 31,000  Level FlightAware
01:36PM 48.0240 -120.0940 277° West 468 539 31,000  Level FlightAware
01:37PM 48.0410 -120.3180 277° West 471 542 31,000  Level FlightAware
01:37PM 48.0450 -120.3730 276° West 471 542 31,000  Level FlightAware
01:38PM 48.0550 -120.5460 275° West 473 544 31,000 -63 Level FlightAware
01:39PM 48.0980 -120.6640 299° West 454 522 30,900 234 Descending FlightAware
01:40PM 48.1170 -120.7690 285° West 464 534 31,300 -250 Climbing FlightAware
01:40PM 48.1450 -120.8810 291° West 490 564 30,600 -578 Descending FlightAware
01:41PM 48.1090 -121.0290 250° West 517 595 30,500 353 Descending FlightAware
01:42PM 48.0760 -121.1610 250° West 516 594 31,100 840 Climbing FlightAware
01:42PM 48.0740 -121.1980 265° West 507 583 31,200  Climbing FlightAware
01:42PM 48.0820 -121.2710 279° West 494 568 31,100 -480 Descending FlightAware
01:43PM 48.0560 -121.4500 258° West 499 574 30,600 -145 Descending FlightAware
01:44PM 48.0600 -121.5720 273° West 500 575 30,900 947 Climbing FlightAware
01:44PM 48.0780 -121.7120 281° West 497 572 31,800 868 Climbing FlightAware
01:45PM 48.0930 -121.8320 281° West 507 583 32,000 167 Climbing FlightAware
01:46PM 48.1100 -121.9580 281° West 523 602 32,000 -592 Level FlightAware
01:46PM 48.1370 -122.0730 289° West 506 582 31,300 -3,319 Descending FlightAware
01:46PM 48.1660 -122.0860 343° North 485 558 29,400  Descending FlightAware
01:47PM 48.2450 -122.0180 30° Northeast 417 480 31,300 1,875 Climbing FlightAware
01:48PM 48.2660 -121.9410 68° East 424 488 31,900 560 Climbing FlightAware
01:48PM 48.2310 -121.8080 112° Southeast 460 529 32,000 80 Climbing FlightAware
01:49PM 48.2010 -121.7190 117° Southeast 471 542 32,000  Level FlightAware
01:50PM 48.1680 -121.6170 116° Southeast 484 557 32,000 86 Level FlightAware
01:50PM 48.1400 -121.5130 112° Southeast 491 565 32,100 -740 Climbing FlightAware
01:51PM 48.1170 -121.3780 104° East 507 583 31,100 -329 Descending FlightAware
01:51PM 48.1020 -121.2890 104° East 501 577 31,700 818 Climbing FlightAware
01:52PM 48.0810 -121.1630 104° East 481 554 32,000 269 Climbing FlightAware
01:52PM 48.0690 -121.0490 99° East 491 565 32,000 -222 Level FlightAware
01:53PM 48.0600 -120.8950 95° East 499 574 31,700 -2,415 Descending FlightAware
01:54PM 48.0540 -120.7830 95° East 468 539 28,700 -5,000 Descending FlightAware
01:54PM 48.0500 -120.7050 94° East 455 524 26,700 -4,857 Descending FlightAware
01:55PM 48.0430 -120.5790 95° East 457 526 23,600 -2,716 Descending FlightAware
01:56PM 48.0360 -120.4310 94° East 462 532 22,400 -1,103 Descending FlightAware
01:56PM 48.0290 -120.3230 95° East 458 527 22,000 -353 Descending FlightAware
01:57PM 48.0220 -120.1890 94° East 476 548 22,000  Level FlightAware
01:58PM 48.0170 -120.0780 94° East 476 548 22,000  Level FlightAware
01:58PM 48.0120 -119.9770 94° East 476 548 22,000  Level FlightAware
01:59PM 48.0050 -119.8350 94° East 476 548 22,000  Level FlightAware
02:00PM 47.9990 -119.6980 94° East 476 548 22,000  Level FlightAware
02:00PM 47.9940 -119.5980 94° East 476 548 22,000  Level FlightAware
02:01PM 47.9910 -119.5280 94° East 476 548 22,000  Level FlightAware
02:02PM 47.9664 -119.1706 94° East 491 565 22,000  Level Seattle Center
02:03PM 47.9528 -118.9706 96° East 490 564 22,000  Level Seattle Center
02:04PM 47.9378 -118.7736 96° East 485 558 22,000  Level Seattle Center
02:05PM 47.9231 -118.5761 96° East 482 555 22,000  Level Seattle Center
02:06PM 47.8906 -118.3861 104° East 483 556 22,000  Level Seattle Center
02:07PM 47.7697 -118.3561 171° South 476 548 22,000  Level Seattle Center
02:13PM 47.2510 -119.1970 171° South 453 521 22,000  Level FlightAware
02:14PM 47.1940 -119.2900 228° Southwest 451 519 22,000  Level FlightAware
02:15PM 47.1150 -119.4190 228° Southwest 452 520 22,000  Level FlightAware
02:15PM 47.0720 -119.4890 228° Southwest 451 519 22,000  Level FlightAware
02:16PM 47.0080 -119.5700 221° Southwest 463 533 22,000  Level FlightAware
02:16PM 46.9710 -119.5800 190° South 475 547 22,000  Level FlightAware
02:17PM 46.8670 -119.5050 154° Southeast 491 565 22,000  Level FlightAware
02:18PM 46.8160 -119.4500 144° Southeast 490 564 22,000  Level FlightAware
02:18PM 46.7500 -119.3770 143° Southeast 490 564 22,000  Level FlightAware
02:19PM 46.6910 -119.3110 142° Southeast 492 566 22,000 -162 Level FlightAware
02:19PM 46.6190 -119.2270 141° Southeast 482 555 21,800 -1,355 Descending FlightAware
02:20PM 46.5950 -119.1780 125° Southeast 470 541 20,600 -3,846 Descending FlightAware
02:20PM 46.5870 -119.1180 101° East 457 526 19,300 -4,375 Descending FlightAware
02:21PM 46.6100 -119.0350 68° East 429 494 17,100 -4,452 Descending FlightAware
02:21PM 46.6650 -119.0000 24° Northeast 403 464 14,700 -2,441 Descending FlightAware
02:22PM 46.7070 -118.9980 North 403 464 14,700  Level FlightAware
02:23PM 46.8040 -118.9960 North 403 464 14,700  Level FlightAware
02:23PM 46.8390 -118.9950 North 403 464 14,700 -4,222 Level FlightAware
02:23PM 46.8536 -119.1336 North 289 333 10,900 -7,125 Descending Seattle Center